Regional Weather Roundup
Issued by NWS

Home | Current Version | Previous Version | Graphics & Text | Print | Product List | Glossary On
Versions: 1 2 3 4 5 6 7 8 9 10 11 12 13 14 15 16 17 18 19 20 21 22 23 24 25 26 27 28 29 30 31 32 33 34 35 36 37 38 39 40 41 42 43 44 45 46 47 48 49 50
000
ASUS43 KLOT 280310
RWRIL

ILLINOIS REGIONAL WEATHER ROUNDUP
NATIONAL WEATHER SERVICE CHICAGO/ROMEOVILLE IL
1000 PM CDT SUN JUL 27 2014

NOTE: "FAIR" INDICATES FEW OR NO CLOUDS BELOW 12,000 FEET WITH NO
SIGNIFICANT WEATHER AND/OR OBSTRUCTIONS TO VISIBILITY.

* THESE STATIONS ARE NOT UNDER NWS QUALITY CONTROL. THEY ALSO MAY NOT
  REPORT WEATHER SUCH AS PRECIPITATION OR FOG.

ILZ001-002-007-009-015-016-024-280400-
NORTHWEST ILLINOIS

CITY           SKY/WX    TMP DP  RH WIND       PRES   REMARKS
MOLINE         CLEAR     71  59  65 NW14G20   29.95R
STERLING*      CLEAR     68  57  68 NW9       29.93R
SAVANNA*       MOCLDY    72  58  62 NW14      29.94R
$$

ILZ003-004-008-010-011-017-018-280400-
NORTH CENTRAL ILLINOIS

CITY           SKY/WX    TMP DP  RH WIND       PRES   REMARKS
ROCKFORD       CLEAR     68  59  73 N13       29.94R
FREEPORT*      PTCLDY    64  58  81 NW8       29.96R
ROCHELLE*      CLEAR     68  59  72 NW12      29.92R
DE KALB*       CLEAR     66  58  76 NW7       29.91R
PERU*          CLEAR     67  60  75 NW10      29.91R
$$

ILZ005-006-012>014-019>023-280400-
NORTHEAST ILLINOIS

CITY           SKY/WX    TMP DP  RH WIND       PRES   REMARKS
CHICAGO-OHARE  MOCLDY    67  59  75 N18G25    29.88R
CHICAGO-MIDWAY MOCLDY    69  63  81 NW9       29.86R
AURORA         PTCLDY    66  57  72 NW5       29.88R
LANSING*       CLOUDY    67  60  77 N7        29.86R
JOLIET*        CLOUDY    70  56  60 CALM      29.89R
WAUKEGAN       CLOUDY    63  59  87 N9        29.89R
DUPAGE AIRPORT CLOUDY    69  60  73 NW12      29.88R
KANKAKEE*      CLEAR     69  59  69 W6        29.87R
WHEELING       CLOUDY    66  60  81 N14       29.91R
MORRIS*        PTCLDY    67  60  78 NW6       29.88R
ROMEOVILLE*    CLOUDY    71  57  62 N15G22    29.87R
NORTHERLY ISL    N/A     65  60  84 N15         N/A
$$

LMZ740>746-280400-
SOUTHERN LAKE MICHIGAN

STATION/POSITION SKY/WX   TEMP    WIND        PRES    VSBY  WAVE
                          AIR SEA DIR/SP/G                  HT/PER
                          (F)     (DEG/KT/KT) (MB)    (MI)  (FT/S)
SOUTHERN BUOY              62 61  330/ 23/ 29 1010.0R         4/ 5
WAUKEGAN HARBOR            63     360/ 18/ 21   N/A
HARRISON CRIB              65     360/ 20/ 26   N/A
BURNHAM HARBOR             65     340/ 10/ 23   N/A
CALUMET HARBOR             65     340/  5/  9 1010.0S
BURNS HARBOR               68     350/ 15/ 19 1011.5R
MICHIGAN CITY              66     330/ 24/ 28   N/A
MICHIGAN CITY 6N           66 69  360/ 19/ 27   N/A           6/ 5
ST. JOSEPH                 63 64  340/ 17/ 23   N/A           6/ 5
$$

ILZ025>027-034>036-040-047-049-050-058-095>099-280400-
WEST-CENTRAL ILLINOIS

CITY           SKY/WX    TMP DP  RH WIND       PRES   REMARKS
QUINCY         CLEAR     67  58  72 NW8       30.02R
GALESBURG*     CLEAR     65  61  86 W7        29.97R
MACOMB*        CLEAR     64  60  86 W7        30.01R
JACKSONVILLE*  CLEAR     68  60  77 W7        30.00R
PITTSFIELD*    CLEAR     69  59  71 NW5       30.02R
$$

ILZ028>032-037-038-041>044-048-051>054-059>061-280400-
CENTRAL ILLINOIS

CITY           SKY/WX    TMP DP  RH WIND       PRES   REMARKS
PONTIAC        CLEAR     68  61  77 W5        29.90R
DECATUR        CLEAR     71  59  65 NW10      29.94R
PEORIA         CLEAR     71  58  63 W8        29.95R
LACON*         CLEAR     68  58  71 W3        29.92R
LINCOLN*       CLEAR     70  59  68 W3        29.93R
SPRINGFIELD    CLEAR     70  60  70 NW8       29.97R
TAYLORVILLE    CLEAR     66  59  77 W6        29.96R
$$

ILZ033-039-045-046-055>057-062-063-280400-
EAST-CENTRAL ILLINOIS

CITY           SKY/WX    TMP DP  RH WIND       PRES   REMARKS
CHAMPAIGN      CLEAR     64  60  87 W9        29.92R
DANVILLE*      CLEAR     66  59  77 W8        29.86R
RANTOUL*       CLEAR     67  58  73 W9        29.91S
MATTOON        CLEAR     66  59  78 W10       29.92R
PARIS*         CLEAR     66  60  82 NW7       29.91R
$$

ILZ079-100>102-280400-
SOUTHWEST ILLINOIS

CITY           SKY/WX    TMP DP  RH WIND       PRES   REMARKS
ALTON          CLEAR     73  59  60 NW12      29.98R
BELLEVILLE     CLEAR     75  61  62 W8        29.96R
CAHOKIA*       CLEAR     77  58  51 NW14      29.97R
SPARTA*        CLEAR     75  61  60 N8G18     29.97R
$$

ILZ064>066-069>071-074>076-080>082-084>086-088>090-092>094-280400-
SOUTH-CENTRAL ILLINOIS

CITY           SKY/WX    TMP DP  RH WIND       PRES   REMARKS
CARBONDALE     CLEAR     75  59  57 N8        29.93R
CAIRO*         CLEAR     78  66  65 NW7       29.92R HX  80
EFFINGHAM*     CLEAR     72  54  53 NW14G21   29.94R
MARION         CLEAR     79  59  50 N6        29.93R HX  80
MT. VERNON     CLEAR     75  57  53 CALM      29.95R
CENTRALIA*     CLEAR     73  55  53 NW10G16   29.96R
SALEM*         CLEAR    N/A N/A N/A NW10      29.96R
METROPOLIS*    CLEAR     80  60  50 N6        29.91R HX  81
$$

ILZ067-068-072-073-078-083-087-091-280400-
SOUTHEAST ILLINOIS

CITY           SKY/WX    TMP DP  RH WIND       PRES   REMARKS
LAWRENCEVILLE  CLEAR     74  59  59 NW14      29.91R
FLORA*         CLEAR     73  57  58 NW10G16   29.94R
FAIRFIELD*     CLEAR     75  63  64 N5        29.93R
HARRISBURG*    CLEAR     76  60  57 NW8       29.92R
ROBINSON*      CLEAR     73  60  64 NW10      29.91S
CARMI*         CLEAR     79  63  57 NW17G25   29.91R HX  80
$$

ABBREVIATIONS USED IN REMARKS
   TC - TEMPERATURE IN CELSIUS
  WCI - WIND CHILL INDEX
   HX - HEAT INDEX
  VSB - VISIBILITY
$$




USA.gov is the U.S. government's official web portal to all federal, state and local government web resources and services.